This is the latest recevied weather packets stored in our database for station/object N9CQS-15. If no packets are shown the sender has not sent any weather packets the latest 10 day(s).
| Time | Temp. | Humidity | Pressure | Rain* | Wind** | Luminosity | Snow |
|---|---|---|---|---|---|---|---|
| 1777703342 | 5.56° C | 82% | 1019.7 hPa | 0 mm | - | - | - |
| 1777702741 | 6.11° C | 82% | 1019.7 hPa | 0 mm | - | - | - |
| 1777702141 | 6.11° C | 82% | 1019.6 hPa | - | - | - | - |
| 1777701542 | 6.67° C | 81% | 1019.6 hPa | - | - | - | - |
| 1777700942 | 6.67° C | 81% | 1019.7 hPa | - | - | - | - |
| 1777700342 | 6.67° C | 80% | 1019.6 hPa | - | - | - | - |
| 1777699742 | 7.22° C | 79% | 1019.4 hPa | - | - | - | - |
| 1777699142 | 7.22° C | 77% | 1019.4 hPa | - | - | - | - |
| 1777698542 | 7.78° C | 76% | 1019.3 hPa | - | - | - | - |
| 1777697941 | 7.78° C | 75% | 1019.5 hPa | 0 mm | - | - | - |
| 1777697341 | 7.78° C | 74% | 1019.5 hPa | - | - | - | - |
| 1777696742 | 8.33° C | 74% | 1019.4 hPa | - | - | - | - |
| 1777696141 | 8.33° C | 74% | 1019.6 hPa | - | - | - | - |
| 1777695542 | 8.33° C | 72% | 1019.5 hPa | - | - | - | - |
| 1777694942 | 8.89° C | 71% | 1019.5 hPa | - | - | - | - |
| 1777694341 | 8.89° C | 71% | 1019.4 hPa | - | - | - | - |
| 1777693741 | 8.89° C | 71% | 1019.4 hPa | - | - | - | - |
| 1777693141 | 8.89° C | 73% | 1019.4 hPa | - | - | - | - |
| 1777692542 | 8.89° C | 72% | 1019.4 hPa | - | - | - | - |
| 1777691941 | 8.89° C | 71% | 1019.3 hPa | - | - | - | - |
| 1777691342 | 8.89° C | 70% | 1019.3 hPa | - | - | - | - |
| 1777690741 | 8.89° C | 71% | 1019.3 hPa | - | - | - | - |
| 1777690142 | 8.89° C | 72% | 1019.2 hPa | - | - | - | - |
| 1777689541 | 8.89° C | 70% | 1019 hPa | 0 mm | - | - | - |
| 1777688942 | 8.89° C | 69% | 1018.9 hPa | - | - | - | - |
* Rain latest hour (hover to see other rain measurements)
** Current wind speed in m/s (hover to see current wind gust speed)